Create Custom Reports and Graphics: Custom Report

Last 6 Observations

Last 30 Minutes (5-Min)

5 Minute Data | America/Los_Angeles
as of 5/2/26 10:07 PM PDT
Date & Time Wind Spd (mph) Wind Dir (°) Wind Gust (mph) Wind Spd Sonic (mph) Wind Dir Sonic (°) Wind Gust Sonic (mph)
5/2/26 - 2205 12.0 SSW | 205 14.8 14.8 SSW | 208 16.1
5/2/26 - 2200 12.1 SSW | 202 15.4 15.0 SSW | 206 16.1
5/2/26 - 2155 11.5 SSW | 200 15.6 14.6 SSW | 208 16.1
5/2/26 - 2150 10.1 SSW | 198 12.7 12.9 SSW | 204 14.3
5/2/26 - 2145 9.9 SSW | 198 12.6 12.5 SSW | 204 13.6
5/2/26 - 2140 9.0 SSW | 200 11.7 11.3 SSW | 201 14.5
Max 12.1 - 15.6 15.0 - 16.1
Avg 10.8 - 13.8 13.5 - 15.1
Min 9.0 - 11.7 11.3 - 13.6

Top Stn/Summit - 11,053ft

Current Conditions

5/2/26 10:00 PM (-07:00)
Updated Every 15 Minutes
Wind Spd 11.3 mph   1.2
Wind Spd Sonic 14.2 mph   1.2
Wind Dir SSW | 200 °
Wind Dir Sonic SSW | 206 °
Wind Gust 15.6 mph   0.3
Wind Gust Sonic 16.1 mph   0.2
Temp 35.0 °F   0.3
WindChill 26.0 °F   0.6
RH 80 %   19
Dew Pt 29.6 °F   5.6
Wet Bulb 32.9 °F   2.4
Daily Max Wind 37.4 mph   2.7
Time of Max Wind 0453
Max Wind Dir S | 176 °
Daily Max Gust Sonic 39.4 mph   8.0
Time Wind Max Sonic 0432
Dir Max Gust Sonic S | 187 Degrees
Daily Max Temp 39.0 °F   7.1
Daily Min Temp 30.9 °F   2.2
Yest MaxT 46.1 °F
Yest MinT 28.6 °F
Yest MaxGst 34.6 mph

Last 24 Hours

Top Stn/Summit - 11,053ft

15 Minute Data | America/Los_Angeles
as of 5/2/26 10:07 PM PDT
Date & Time Temp (°F) WindChill (°F) RH (%) Dew Pt (°F) Wet Bulb (°F) Wind Spd (mph) Wind Spd Sonic (mph) Wind Dir (°) Wind Dir Sonic (°) Wind Gust (mph) Wind Gust Sonic (mph) Daily Min Temp (°F) Daily Max Temp (°F) Daily Max Wind (mph) Daily Max Gust Sonic (mph)
5/2/26 - 2200 35.0 26.0 80 29.6 32.9 11.3 14.2 SSW | 200 SSW | 206 15.6 16.1 30.9 39.0 37.4 39.4
5/2/26 - 2145 34.7 26.6 81 29.6 32.8 9.5 11.8 SSW | 201 SSW | 202 12.6 14.5 30.9 39.0 37.4 39.4
5/2/26 - 2130 34.4 26.5 82 29.6 32.5 9.2 11.8 SSW | 203 SSW | 198 11.8 14.3 30.9 39.0 37.4 39.4
5/2/26 - 2115 34.2 25.3 83 29.6 32.4 10.5 13.1 SSW | 202 SSW | 204 14.8 16.1 30.9 39.0 37.4 39.4
5/2/26 - 2100 34.9 26.1 82 30.1 33.0 10.6 13.3 SSW | 200 SSW | 192 15.0 16.3 30.9 39.0 37.4 39.4
5/2/26 - 2045 33.5 24.2 88 30.2 32.2 10.8 13.2 SSW | 206 SSW | 203 15.7 16.1 30.9 39.0 37.4 39.4
5/2/26 - 2030 32.8 22.4 90 30.3 31.8 13.6 15.5 SSW | 212 SSW | 211 17.6 17.0 30.9 39.0 37.4 39.4
5/2/26 - 2015 32.4 21.3 92 30.5 31.6 14.9 16.3 SW | 215 SSW | 213 20.0 19.0 30.9 39.0 37.4 39.4
5/2/26 - 2000 32.5 20.8 93 30.6 31.7 17.0 17.8 SW | 215 SSW | 213 22.1 20.1 30.9 39.0 37.4 39.4
5/2/26 - 1945 33.1 21.2 92 31.0 32.2 17.8 18.4 SW | 220 SW | 218 23.2 22.6 30.9 39.0 37.4 39.4
5/2/26 - 1930 33.1 20.9 92 31.1 32.3 18.5 18.9 SW | 222 SW | 220 25.6 25.3 30.9 39.0 37.4 39.4
5/2/26 - 1915 33.7 21.1 91 31.2 32.7 20.0 20.5 SW | 224 SW | 220 28.4 25.3 30.9 39.0 37.4 39.4
5/2/26 - 1900 33.9 21.2 90 31.3 32.8 20.7 21.0 SW | 227 SW | 225 28.9 28.6 30.9 39.0 37.4 39.4
5/2/26 - 1845 34.0 21.1 90 31.3 32.9 21.9 22.4 SW | 224 SW | 223 30.5 28.9 30.9 39.0 37.4 39.4
5/2/26 - 1830 34.3 21.5 89 31.3 33.1 22.0 22.2 SW | 224 SW | 222 30.4 27.7 30.9 39.0 37.4 39.4
5/2/26 - 1815 34.4 21.7 88 31.2 33.1 21.5 22.1 SW | 226 SW | 223 29.6 27.7 30.9 39.0 37.4 39.4
5/2/26 - 1800 34.6 22.3 86 30.8 33.1 20.8 21.3 SW | 225 SW | 222 28.0 26.8 30.9 39.0 37.4 39.4
5/2/26 - 1745 34.9 22.0 85 30.8 33.3 21.9 22.2 SW | 226 SW | 224 34.3 30.6 30.9 39.0 37.4 39.4
5/2/26 - 1730 34.6 21.3 86 31.0 33.2 24.9 25.8 SW | 224 SW | 221 33.8 32.9 30.9 39.0 37.4 39.4
5/2/26 - 1715 34.7 22.0 86 30.9 33.2 22.9 23.6 SW | 224 SW | 221 30.0 28.0 30.9 39.0 37.4 39.4
5/2/26 - 1700 34.8 22.2 86 30.9 33.2 21.8 23.1 SW | 225 SW | 222 29.9 28.6 30.9 39.0 37.4 39.4
5/2/26 - 1645 35.0 22.4 84 30.8 33.4 23.0 24.2 SW | 224 SW | 221 30.3 30.9 30.9 39.0 37.4 39.4
5/2/26 - 1630 34.6 22.2 85 30.7 33.1 21.4 21.7 SW | 229 SW | 226 28.2 27.1 30.9 39.0 37.4 39.4
5/2/26 - 1615 34.4 21.4 85 30.5 32.8 22.9 23.7 SW | 224 SW | 221 31.9 30.6 30.9 39.0 37.4 39.4
5/2/26 - 1600 34.0 21.2 87 30.6 32.7 22.5 23.5 SW | 227 SW | 223 30.1 28.4 30.9 39.0 37.4 39.4
5/2/26 - 1545 34.8 21.6 84 30.5 33.1 24.6 25.5 SW | 226 SW | 223 33.6 34.9 30.9 39.0 37.4 39.4
5/2/26 - 1530 35.2 22.3 83 30.6 33.4 24.4 25.1 SW | 224 SW | 221 31.9 30.9 30.9 39.0 37.4 39.4
5/2/26 - 1515 35.8 23.5 79 29.9 33.5 21.6 22.0 SW | 231 SW | 229 31.5 32.9 30.9 39.0 37.4 39.4
5/2/26 - 1500 36.4 24.0 75 29.2 33.6 23.3 23.6 SW | 227 SW | 225 32.8 32.0 30.9 39.0 37.4 39.4
5/2/26 - 1445 36.7 24.7 72 28.6 33.6 22.1 22.2 SW | 228 SW | 227 31.0 30.4 30.9 39.0 37.4 39.4
5/2/26 - 1430 37.9 26.4 68 28.2 34.1 20.1 20.1 SW | 225 SW | 225 30.8 31.1 30.9 39.0 37.4 39.4
5/2/26 - 1415 38.4 27.2 65 27.8 34.3 18.0 18.3 SW | 233 SW | 233 33.3 31.5 30.9 39.0 37.4 39.4
5/2/26 - 1400 38.5 27.8 64 27.5 34.2 18.2 18.0 SW | 230 SW | 230 28.1 27.5 30.9 39.0 37.4 39.4
5/2/26 - 1345 38.0 27.0 65 27.4 34.0 17.1 17.5 SW | 223 SW | 225 30.0 28.9 30.9 38.7 37.4 39.4
5/2/26 - 1330 37.4 26.9 66 27.0 33.5 14.1 15.0 SW | 231 SW | 231 27.2 28.9 30.9 38.7 37.4 39.4
5/2/26 - 1315 38.0 27.6 64 26.8 33.7 17.5 17.6 SW | 227 SW | 224 24.2 23.5 30.9 38.7 37.4 39.4
5/2/26 - 1300 38.2 27.8 63 26.9 33.9 15.1 15.6 SW | 231 SW | 232 27.3 26.4 30.9 38.7 37.4 39.4
5/2/26 - 1245 37.2 26.5 65 26.7 33.2 16.5 16.8 SW | 233 SW | 233 26.4 25.5 30.9 37.8 37.4 39.4
5/2/26 - 1230 37.3 26.5 65 26.4 33.2 16.5 16.7 SW | 231 SW | 233 27.1 26.6 30.9 37.8 37.4 39.4
5/2/26 - 1215 37.2 26.8 65 26.5 33.1 13.8 14.6 WSW | 238 WSW | 241 26.3 26.8 30.9 37.8 37.4 39.4
5/2/26 - 1200 36.9 25.4 66 26.4 33.0 19.5 19.8 SW | 222 SW | 223 29.1 30.4 30.9 37.8 37.4 39.4
5/2/26 - 1145 37.2 25.8 64 26.3 33.1 17.6 17.8 SW | 219 SW | 218 30.5 28.0 30.9 37.8 37.4 39.4
5/2/26 - 1130 37.5 26.2 64 26.3 33.3 18.8 19.3 SW | 217 SW | 215 29.4 28.0 30.9 37.8 37.4 39.4
5/2/26 - 1115 36.7 25.2 66 26.6 32.9 19.1 19.4 SW | 221 SW | 218 28.4 27.1 30.9 37.1 37.4 39.4
5/2/26 - 1100 36.6 25.4 67 26.7 32.9 17.6 18.0 SW | 216 SW | 214 27.2 29.8 30.9 37.0 37.4 39.4
5/2/26 - 1045 35.7 24.8 69 26.6 32.3 17.0 17.3 SW | 219 SW | 217 23.6 22.4 30.9 36.2 37.4 39.4
5/2/26 - 1030 35.6 23.4 70 26.7 32.2 20.3 20.6 SW | 220 SW | 218 29.7 30.0 30.9 35.8 37.4 39.4
5/2/26 - 1015 35.5 23.7 70 26.5 32.1 19.7 20.1 SW | 220 SW | 217 26.8 26.6 30.9 35.8 37.4 39.4
5/2/26 - 1000 35.1 22.6 71 26.5 31.9 22.1 22.1 SW | 220 SW | 218 29.5 28.6 30.9 35.5 37.4 39.4
5/2/26 - 0945 34.9 22.3 70 26.3 31.7 21.6 21.7 SW | 218 SW | 217 31.3 31.5 30.9 35.2 37.4 39.4
5/2/26 - 0930 34.8 22.0 71 26.3 31.6 22.0 22.5 SW | 215 SW | 215 31.5 29.1 30.9 35.2 37.4 39.4
5/2/26 - 0915 35.0 22.4 71 26.5 31.8 21.9 22.3 SW | 217 SW | 215 30.5 29.1 30.9 35.2 37.4 39.4
5/2/26 - 0900 34.5 21.4 72 26.6 31.6 23.8 24.5 SW | 214 SSW | 212 33.2 33.1 30.9 35.2 37.4 39.4
5/2/26 - 0845 34.5 21.4 72 26.6 31.5 23.0 24.1 SSW | 209 SSW | 207 31.6 32.7 30.9 35.2 37.4 39.4
5/2/26 - 0830 34.2 20.9 74 26.8 31.4 23.1 24.4 SSW | 205 SSW | 203 33.1 32.7 30.9 35.2 37.4 39.4
5/2/26 - 0815 33.7 21.0 76 26.8 31.1 20.9 22.5 SSW | 205 SSW | 204 28.2 28.0 30.9 35.2 37.4 39.4
5/2/26 - 0800 33.6 20.3 75 26.7 31.0 22.5 24.2 SSW | 204 SSW | 203 32.6 29.5 30.9 35.2 37.4 39.4
5/2/26 - 0745 33.8 20.8 75 26.8 31.2 22.5 23.6 SSW | 206 SSW | 204 29.6 29.5 30.9 35.2 37.4 39.4
5/2/26 - 0730 32.9 19.2 78 26.6 30.5 23.0 24.1 SSW | 204 SSW | 204 31.7 31.8 30.9 35.2 37.4 39.4
5/2/26 - 0715 32.5 18.0 78 26.4 30.2 27.3 29.4 SSW | 200 SSW | 199 36.1 35.6 30.9 35.2 37.4 39.4
5/2/26 - 0700 32.9 19.0 79 27.0 30.6 24.3 25.9 SSW | 199 SSW | 199 33.5 32.2 30.9 35.2 37.4 39.4
5/2/26 - 0645 32.3 18.6 80 27.0 30.3 23.2 24.8 SSW | 204 SSW | 202 32.0 32.7 30.9 35.2 37.4 39.4
5/2/26 - 0630 32.1 17.8 80 26.7 30.1 25.3 27.8 SSW | 196 SSW | 195 34.4 35.1 30.9 35.2 37.4 39.4
5/2/26 - 0615 32.0 17.6 81 26.7 30.0 25.4 27.5 SSW | 195 SSW | 194 34.2 33.1 30.9 35.2 37.4 39.4
5/2/26 - 0600 32.0 18.1 80 26.6 30.0 24.0 26.4 SSW | 196 SSW | 194 30.8 30.9 30.9 35.2 37.4 39.4
5/2/26 - 0545 32.3 18.1 77 26.0 29.9 24.7 27.2 SSW | 193 SSW | 192 34.2 34.2 30.9 35.2 37.4 39.4
5/2/26 - 0530 32.6 18.6 75 25.6 30.0 25.2 28.2 SSW | 192 S | 191 33.0 34.9 30.9 35.2 37.4 39.4
5/2/26 - 0515 32.9 18.5 75 25.7 30.2 27.5 31.2 S | 190 S | 188 35.3 35.8 30.9 35.2 37.4 39.4
5/2/26 - 0500 33.2 18.7 74 25.8 30.5 28.8 33.1 S | 186 S | 186 37.4 38.9 30.9 35.2 37.4 39.4
5/2/26 - 0445 33.4 19.1 74 26.0 30.7 28.4 32.6 S | 182 S | 183 36.2 39.4 30.9 35.2 36.2 39.4
5/2/26 - 0430 32.6 18.5 81 27.4 30.6 26.2 29.2 S | 180 S | 181 33.4 33.8 30.9 35.2 33.4 33.8
5/2/26 - 0415 31.5 17.7 94 30.1 30.8 22.1 24.6 SSW | 193 S | 190 30.0 29.8 30.9 35.2 30.0 29.8
5/2/26 - 0400 31.2 17.8 96 30.2 30.8 21.6 24.6 SSW | 204 SSW | 201 27.0 26.8 30.9 35.2 28.2 28.6
5/2/26 - 0345 31.0 17.6 95 29.7 30.4 21.4 24.2 SSW | 207 SSW | 205 26.6 26.0 30.9 35.2 28.2 28.6
5/2/26 - 0330 31.1 17.9 98 30.5 30.8 20.5 23.2 SSW | 207 SSW | 205 26.1 25.5 31.0 35.2 28.2 28.6
5/2/26 - 0315 31.4 18.8 99 31.2 31.2 18.9 21.0 SSW | 208 SSW | 206 24.1 22.8 31.2 35.2 28.2 28.6
5/2/26 - 0300 31.9 19.8 97 31.2 31.6 17.8 19.7 SSW | 209 SSW | 208 22.2 21.2 31.7 35.2 28.2 28.6
5/2/26 - 0245 32.4 20.8 94 30.9 31.8 17.0 18.5 SSW | 208 SSW | 206 21.2 20.6 32.0 35.2 28.2 28.6
5/2/26 - 0230 32.5 20.9 92 30.5 31.7 17.1 18.8 SSW | 202 SSW | 200 21.6 20.6 32.2 35.2 28.2 28.6
5/2/26 - 0215 33.3 21.5 90 30.6 32.2 18.0 19.8 SSW | 197 SSW | 194 23.4 22.8 32.9 35.2 28.2 28.6
5/2/26 - 0200 33.7 21.7 89 30.8 32.5 19.0 21.2 SSW | 193 S | 190 25.0 24.6 33.2 35.2 28.2 28.6
5/2/26 - 0145 33.4 21.1 89 30.6 32.3 19.5 21.5 SSW | 196 SSW | 193 26.8 25.7 33.2 35.2 28.2 28.6
5/2/26 - 0130 33.6 21.0 88 30.5 32.4 20.7 23.1 SSW | 198 SSW | 196 28.2 28.6 33.4 35.2 28.2 28.6
5/2/26 - 0115 34.7 23.0 86 30.8 33.2 19.4 21.9 SSW | 192 S | 190 25.4 26.6 34.1 35.2 25.4 26.6
5/2/26 - 0100 34.2 22.5 87 30.7 32.8 18.7 21.4 S | 189 S | 187 24.1 23.7 28.6 46.1 34.6 31.3
5/2/26 - 0045 33.3 21.0 91 31.0 32.4 19.4 21.5 SSW | 198 SSW | 194 25.9 26.0 28.6 46.1 34.6 31.3
5/2/26 - 0030 33.6 21.9 94 32.0 32.9 17.8 19.7 SSW | 199 SSW | 196 22.8 21.7 28.6 46.1 34.6 31.3
5/2/26 - 0015 33.3 21.4 93 31.5 32.5 17.9 19.5 SSW | 207 SSW | 204 23.8 23.3 28.6 46.1 34.6 31.3
5/2/26 - 0000 33.5 22.6 93 31.6 32.8 15.6 18.2 SSW | 209 SSW | 208 19.9 20.1 28.6 46.1 34.6 31.3
5/1/26 - 2345 34.0 23.4 93 32.1 33.2 15.6 18.2 SSW | 209 SSW | 208 19.1 19.7 28.6 46.1 34.6 31.3
5/1/26 - 2330 34.1 23.5 100 34.0 34.0 14.7 17.5 SW | 214 SSW | 212 19.8 19.5 28.6 46.1 34.6 31.3
5/1/26 - 2315 33.9 23.1 100 33.9 33.9 15.8 18.7 SSW | 213 SSW | 213 19.9 20.4 28.6 46.1 34.6 31.3
5/1/26 - 2300 34.5 24.0 100 34.4 34.4 14.2 16.7 SW | 218 SW | 217 20.5 19.9 28.6 46.1 34.6 31.3
5/1/26 - 2245 35.0 24.2 100 34.9 35.0 14.3 17.5 SSW | 213 SSW | 213 23.0 24.2 28.6 46.1 34.6 31.3
5/1/26 - 2230 35.0 24.9 99 34.8 35.0 13.7 16.6 SSW | 210 SSW | 209 19.6 22.2 28.6 46.1 34.6 31.3
5/1/26 - 2215 35.3 25.6 100 35.2 35.3 12.7 15.1 SSW | 207 SSW | 205 18.7 19.9 28.6 46.1 34.6 31.3
5/1/26 - 2200 35.3 26.5 99 35.1 35.2 10.1 12.9 SSW | 211 SSW | 210 15.9 16.3 28.6 46.1 34.6 31.3
Max 38.5 27.8 100 35.2 35.3 28.8 33.1 - - 37.4 39.4 34.1 46.1 37.4 39.4
Avg 34.4 22.4 82 29.2 32.4 19.5 21.0 - - 27.2 26.9 - - - -
Min 31.0 17.6 63 25.6 29.9 9.2 11.8 - - 11.8 14.3 28.6 35.2 25.4 26.6
Calm: 0.0%